Location: Unspecified
(61.3381°N, 0.0000°E)
Time: 05:04:09
(UTC+00:00)

CZ-6A DEB - Visible Passes

Search period start: 04 April 2026 00:00
Search period end: 14 April 2026 00:00
Orbit: 785 x 939 km, 88.9° (Epoch: 24 March)

Date Brightness Start Highest point End Pass type
(mag) Time Alt. Az. Time Alt. Az. Time Alt. Az.
4 Apr ? 03:29:27 10° ESE 03:33:01 18° ENE 03:36:34 10° NNE visible
5 Apr ? 03:21:06 10° ESE 03:24:30 17° ENE 03:27:52 10° NNE visible
6 Apr ? 03:12:46 10° E 03:15:59 16° ENE 03:19:11 10° NNE visible
7 Apr ? 03:04:26 10° E 03:07:28 15° ENE 03:10:28 10° NNE visible
8 Apr ? 02:56:07 10° E 02:58:56 15° ENE 03:01:45 10° NNE visible
9 Apr ? 02:47:49 10° E 02:50:24 14° ENE 02:53:00 10° NNE visible
10 Apr ? 02:39:31 10° E 02:41:53 13° ENE 02:44:14 10° NNE visible
11 Apr ? 02:31:16 10° E 02:33:21 12° ENE 02:35:25 10° NNE visible
12 Apr ? 02:23:03 10° ENE 02:24:49 12° NE 02:26:34 10° NE visible
12 Apr ? 04:00:45 10° SSE 04:05:44 42° ENE 04:10:39 10° N visible
13 Apr ? 02:14:54 10° ENE 02:16:16 11° NE 02:17:38 10° NE visible
13 Apr ? 03:52:13 10° SE 03:57:08 40° ENE 04:02:00 10° N visible
